Sheboygan Falls, WI

7:58 PM CST on December 05, 2016 (GMT -0600)
Sheboygan County Memorial

Weather History for KSBM - October, 2011

Change the Weather History Date:

Saturday, October 15, 2011

  Actual Average Record
Temperature  
Mean Temperature 52 °F -  
Max Temperature 57 °F 59 °F 76 °F (1958)
Min Temperature 46 °F 44 °F 25 °F (2006)
Degree Days  
Heating Degree Days 14    
Growing Degree Days 2 (Base 50)    
Moisture  
Dew Point 34 °F    
Average Humidity 52    
Maximum Humidity 59    
Minimum Humidity 41    
Precipitation  
Precipitation 0.00 in - - ()
Sea Level Pressure  
Sea Level Pressure 29.68 in    
Wind  
Wind Speed 19 mph (West)    
Max Wind Speed 24 mph    
Max Gust Speed 40 mph    
Visibility 10 miles    
Events      
Averages and records for this station are not official NWS values.
T = Trace of Precipitation, MM = Missing Value Source: NWS Daily Summary

Daily Weather History Graph

Daily Weather History Graph

Search for Another Location

Airport or City:

Trip Planner

Search our weather history database for the weather conditions in past years. The results will help you decide how hot, cold, wet, or windy it might be!

Date:

Astronomy

Oct. 15, 2011 Rise Set
Actual Time 7:05 AM CDT 6:08 PM CDT
Civil Twilight 6:36 AM CDT 6:37 PM CDT
Nautical Twilight 6:03 AM CDT 7:10 PM CDT
Astronomical Twilight 5:29 AM CDT 7:43 PM CDT
Moon 7:56 PM CDT (10/15) 10:37 AM CDT (10/15)
Length of Visible Light 12h 00m
Length of Day
11h 02m
Waning Gibbous, 89% of the Moon is Illuminated
Oct 15
Waning Gibbous
Oct 19
Last Quarter
Oct 26
New
Nov 2
First Quarter
Nov 10
Full

Hourly Weather History & Observations

Time (CDT) Temp. Dew Point Humidity Pressure Visibility Wind Dir Wind Speed Gust Speed Precip Events Conditions
12:53 AM 50.0 °F 35.1 °F 57% 29.55 in 10.0 mi West 20.7 mph 31.1 mph N/A   Mostly Cloudy
1:53 AM 50.0 °F 34.0 °F 54% 29.55 in 10.0 mi WNW 21.9 mph 31.1 mph N/A   Clear
2:53 AM 48.9 °F 33.1 °F 54% 29.57 in 10.0 mi WNW 19.6 mph 35.7 mph N/A   Clear
4:53 AM 48.0 °F 33.1 °F 56% 29.60 in 10.0 mi WNW 18.4 mph 29.9 mph N/A   Partly Cloudy
5:53 AM 46.9 °F 33.1 °F 59% 29.60 in 10.0 mi WNW 21.9 mph 33.4 mph N/A   Clear
6:53 AM 46.9 °F 33.1 °F 59% 29.61 in 10.0 mi West 17.3 mph 26.5 mph N/A   Clear
8:53 AM 48.9 °F 35.1 °F 59% 29.65 in 10.0 mi WNW 21.9 mph 34.5 mph N/A   Clear
9:53 AM 50.0 °F 34.0 °F 54% 29.66 in 10.0 mi WNW 24.2 mph 39.1 mph N/A   Clear
10:53 AM 52.0 °F 35.1 °F 53% 29.68 in 10.0 mi West 24.2 mph 40.3 mph N/A   Scattered Clouds
12:53 PM 55.0 °F 34.0 °F 45% 29.69 in 10.0 mi WNW 23.0 mph 39.1 mph N/A   Partly Cloudy
1:53 PM 57.0 °F 34.0 °F 42% 29.69 in 10.0 mi WNW 20.7 mph 35.7 mph N/A   Clear
2:53 PM 57.0 °F 35.1 °F 44% 29.70 in 10.0 mi West 20.7 mph 36.8 mph N/A   Mostly Cloudy
3:53 PM 57.9 °F 34.0 °F 41% 29.71 in 10.0 mi West 21.9 mph 39.1 mph N/A   Mostly Cloudy
5:53 PM 55.0 °F 34.0 °F 45% 29.73 in 10.0 mi West 12.7 mph 19.6 mph N/A   Clear
7:53 PM 51.1 °F 36.0 °F 56% 29.76 in 10.0 mi WSW 9.2 mph - N/A   Clear
8:53 PM 51.1 °F 36.0 °F 56% 29.77 in 10.0 mi West 10.4 mph - N/A   Clear
9:53 PM 53.1 °F 35.1 °F 50% 29.77 in 10.0 mi West 12.7 mph 18.4 mph N/A   Clear
10:53 PM 53.1 °F 34.0 °F 48% 29.79 in 10.0 mi West 13.8 mph 20.7 mph N/A   Scattered Clouds
11:53 PM 54.0 °F 34.0 °F 47% 29.79 in 10.0 mi West 15.0 mph - N/A   Mostly Cloudy